Location: Karlovy Vary
(50.2170°N, 12.9000°E)
Time: 00:26:21
(UTC+01:00)

ISS - Pass Details

Date: 05 October 2020
Orbit: 417 x 420 km, 51.6° (Epoch: 30 October)

Event Time Altitude Azimuth Distance (km) Brightness Sun altitude
Rises 19:33:17 0° 286° (WNW) 2,368 1.9 -9.8°
Reaches altitude 10° 19:35:31 10° 276° (W) 1,501 0.7 -10.1°
Maximum altitude 19:38:33 31° 212° (SSW) 755 -2.2 -10.6°
Drops below altitude 10° 19:41:34 10° 148° (SSE) 1,495 -1.3 -11.1°
Enters shadow 19:42:03 - 145° (SE) 1,678 -1.1 -11.2°
